Hiwassee Observed Data For Previous 48 Hours

Caption
Day and Hour Reservoir Elevation (behind dam)* Tailwater Elevation (below dam)* Average Hourly Discharge*
7/14/2018 2 AM EDT 1,520.22 1,278.53 0
7/14/2018 3 AM EDT 1,520.25 1,278.49 0
7/14/2018 4 AM EDT 1,520.29 1,278.71 0
7/14/2018 5 AM EDT 1,520.29 1,278.45 0
7/14/2018 6 AM EDT 1,520.34 1,278.45 0
7/14/2018 7 AM EDT 1,520.34 1,278.57 0
7/14/2018 8 AM EDT 1,520.37 1,278.61 0
7/14/2018 9 AM EDT 1,520.39 1,278.46 0
7/14/2018 10 AM EDT 1,520.39 1,278.38 0
7/14/2018 11 AM EDT 1,520.42 1,278.48 0
7/14/2018 12 PM EDT 1,520.41 1,278.28 0
7/14/2018 1 PM EDT 1,520.44 1,278.13 0
7/14/2018 2 PM EDT 1,520.44 1,277.99 0
7/14/2018 3 PM EDT 1,520.46 1,278.50 238
7/14/2018 4 PM EDT 1,520.42 1,278.25 4,471
7/14/2018 5 PM EDT 1,520.37 1,278.38 4,456
7/14/2018 6 PM EDT 1,520.34 1,278.36 4,471
7/14/2018 7 PM EDT 1,520.27 1,278.89 4,469
7/14/2018 8 PM EDT 1,520.25 1,279.00 4,477
7/14/2018 9 PM EDT 1,520.25 1,278.32 173
7/14/2018 10 PM EDT 1,520.29 1,278.85 0
7/14/2018 11 PM EDT 1,520.32 1,278.85 0
7/15/2018 12 AM EDT 1,520.37 1,278.53 0
7/15/2018 1 AM EDT 1,520.39 1,278.38 0
7/15/2018 2 AM EDT 1,520.44 1,278.49 0
7/15/2018 3 AM EDT 1,520.46 1,278.63 0
7/15/2018 4 AM EDT 1,520.49 1,278.48 0
7/15/2018 5 AM EDT 1,520.51 1,278.41 0
7/15/2018 6 AM EDT 1,520.53 1,278.49 0
7/15/2018 7 AM EDT 1,520.54 1,278.49 0
7/15/2018 8 AM EDT 1,520.56 1,278.52 0
7/15/2018 9 AM EDT 1,520.58 1,278.39 0
7/15/2018 10 AM EDT 1,520.58 1,278.43 0
7/15/2018 11 AM EDT 1,520.59 1,278.36 0
7/15/2018 12 PM EDT 1,520.61 1,278.19 0
7/15/2018 1 PM EDT 1,520.61 1,277.95 0
7/15/2018 2 PM EDT 1,520.63 1,277.85 72
7/15/2018 3 PM EDT 1,520.61 1,278.03 3,855
7/15/2018 4 PM EDT 1,520.56 1,277.87 3,854
7/15/2018 5 PM EDT 1,520.54 1,277.82 3,869
7/15/2018 6 PM EDT 1,520.47 1,278.08 3,857
7/15/2018 7 PM EDT 1,520.46 1,278.16 3,886
7/15/2018 8 PM EDT 1,520.46 1,277.60 92
7/15/2018 9 PM EDT 1,520.49 1,277.81 0
7/15/2018 10 PM EDT 1,520.51 1,277.77 0
7/15/2018 11 PM EDT 1,520.61 1,277.52 0
7/16/2018 12 AM EDT 1,520.58 1,277.37 0
7/16/2018 1 AM EDT 1,520.66 1,277.54 0
7/16/2018 2 AM EDT 1,520.71 1,277.63 0

Elevations are in feet above sea level. Discharges are in cubic feet per second and are reported at the end of the hour.